Back to catalog

STARLINK-6250

AliveCommunicationsVLEO
NORAD 57230·PAYLOAD·🇺🇸 United States

Launched Jul 7, 2023 from Vandenberg Space Force Base

Loading…

Next Passes (next 24 hours)

TLE

FreshSource: CelesTrak SupGP

Epoch: Sep 14, 2026, 21:37 UTC

1 57230C 23094N   26257.90118056  .00051075  00000+0  18498-2 0  2573
2 57230  43.0046  42.4587 0002006 278.7646 287.8659 15.27555014    15

Track STARLINK-6250 in real time with AllMySat

Download on the App Store